Frederick, OK

8:35 AM CST on November 20, 2017 (GMT -0600)
Frederick Municipal

Weather History for KFDR - October, 2012

Change the Weather History Date:

Thursday, October 4, 2012

  Actual Average (KLTS) Record (KLTS)
Temperature  
Mean Temperature 66 °F -  
Max Temperature 72 °F 78 °F 95 °F (2007)
Min Temperature 61 °F 56 °F 38 °F (2014)
Cooling Degree Days 1    
Growing Degree Days 16 (Base 50)    
Moisture  
Dew Point 52 °F    
Average Humidity 66    
Maximum Humidity 87    
Minimum Humidity 54    
Precipitation  
Precipitation 0.00 in - - ()
Sea Level Pressure  
Sea Level Pressure 30.04 in    
Wind  
Wind Speed 11 mph (NE)    
Max Wind Speed 28 mph    
Max Gust Speed 36 mph    
Visibility 10 miles    
Events      
Averages and records for this station are not official NWS values.
T = Trace of Precipitation, MM = Missing Value Source: NWS Daily Summary

Daily Weather History Graph

Daily Weather History Graph

Search for Another Location

Airport or City:

Trip Planner

Search our weather history database for the weather conditions in past years. The results will help you decide how hot, cold, wet, or windy it might be!

Date:

Astronomy

Oct. 04, 2012 Rise Set
Actual Time 7:33 AM CDT 7:15 PM CDT
Civil Twilight 7:08 AM CDT 7:40 PM CDT
Nautical Twilight 6:38 AM CDT 8:09 PM CDT
Astronomical Twilight 6:09 AM CDT 8:38 PM CDT
Moon 10:03 PM CDT (10/4) 11:40 AM CDT (10/4)
Length of Visible Light 12h 32m
Length of Day
11h 42m
Waning Gibbous, 82% of the Moon is Illuminated
Oct 4
Waning Gibbous
Oct 8
Last Quarter
Oct 15
New
Oct 21
First Quarter
Oct 29
Full

Hourly Weather History & Observations

Time (CDT) Temp. Dew Point Humidity Pressure Visibility Wind Dir Wind Speed Gust Speed Precip Events Conditions
12:53 AM 64.0 °F 54.0 °F 70% 29.90 in 10.0 mi ESE 9.2 mph - N/A   Clear
1:53 AM 63.0 °F 54.0 °F 72% 29.90 in 10.0 mi ESE 10.4 mph - N/A   Clear
2:53 AM 64.9 °F 54.0 °F 68% 29.89 in 10.0 mi SE 16.1 mph - N/A   Clear
3:53 AM 64.0 °F 54.0 °F 70% 29.89 in 10.0 mi SE 12.7 mph - N/A   Clear
4:53 AM 64.0 °F 54.0 °F 70% 29.90 in 10.0 mi SE 10.4 mph - N/A   Clear
5:53 AM 64.0 °F 55.0 °F 73% 29.91 in 10.0 mi SSE 13.8 mph - N/A   Clear
6:53 AM 63.0 °F 55.9 °F 78% 29.99 in 10.0 mi NNW 5.8 mph - N/A   Clear
7:53 AM 61.0 °F 57.0 °F 87% 30.00 in 10.0 mi East 5.8 mph - N/A   Clear
8:53 AM 66.0 °F 59.0 °F 78% 30.03 in 10.0 mi East 5.8 mph - N/A   Clear
9:53 AM 70.0 °F 61.0 °F 73% 30.04 in 10.0 mi SE 6.9 mph - N/A   Mostly Cloudy
10:01 AM 69.8 °F 60.8 °F 73% 30.08 in 10.0 mi SE 4.6 mph - N/A   Scattered Clouds
10:13 AM 71.6 °F 62.6 °F 73% 30.08 in 10.0 mi SSE 6.9 mph - N/A   Mostly Cloudy
10:53 AM 71.1 °F 62.1 °F 73% 30.06 in 10.0 mi Variable 3.5 mph - N/A   Overcast
11:53 AM 71.1 °F 61.0 °F 70% 30.08 in 10.0 mi North 17.3 mph 31.1 mph N/A   Overcast
12:13 PM 62.6 °F 48.2 °F 59% 30.12 in 10.0 mi North 25.3 mph 34.5 mph N/A   Overcast
12:53 PM 62.1 °F 46.0 °F 56% 30.10 in 10.0 mi North 27.6 mph 35.7 mph N/A   Overcast
1:53 PM 61.0 °F 45.0 °F 56% 30.10 in 10.0 mi North 21.9 mph 29.9 mph N/A   Overcast
2:53 PM 62.1 °F 46.0 °F 56% 30.09 in 10.0 mi North 24.2 mph 29.9 mph N/A   Overcast
3:53 PM 62.1 °F 46.0 °F 56% 30.10 in 10.0 mi North 18.4 mph - N/A   Overcast
5:53 PM 63.0 °F 46.0 °F 54% 30.10 in 10.0 mi North 12.7 mph - N/A   Overcast
6:53 PM 63.0 °F 46.0 °F 54% 30.10 in 10.0 mi North 10.4 mph - N/A   Overcast
7:53 PM 63.0 °F 46.0 °F 54% 30.09 in 10.0 mi North 12.7 mph - N/A   Overcast
8:53 PM 63.0 °F 46.9 °F 56% 30.10 in 10.0 mi North 6.9 mph - N/A   Overcast
9:53 PM 63.0 °F 46.9 °F 56% 30.09 in 10.0 mi North 5.8 mph - N/A   Overcast
10:53 PM 62.1 °F 46.9 °F 58% 30.10 in 10.0 mi North 5.8 mph - N/A   Overcast
11:53 PM 62.1 °F 48.0 °F 60% 30.09 in 10.0 mi North 5.8 mph - N/A   Overcast